CFG069 EDDF-LOWI

Flight info

Callsign CFG069
Flight time N/A
Altitude 23000
Route CINDY8S CINDY Z74 LAMPU Z54 NOMBO Y161 MANAL M736 TULSI TULSI3A
Aircraft A320/M-SDE3FGHIRWY/LB1

Departure

Time 2026-04-16 06:42
Airport Frankfurt Main Airport (EDDF)

Arrival

Time N/A
Airport Innsbruck Airport (LOWI)
Time Latitude Longitude Altitude Speed Heading
2026-04-16 06:40 50.03312 8.52595 336 ft 0 kts 179°
2026-04-16 06:41 50.03240 8.52596 336 ft 41 kts 179°
2026-04-16 06:41 50.02680 8.52597 336 ft 115 kts 180°
2026-04-16 06:41 50.01702 8.52628 519 ft 151 kts 180°
2026-04-16 06:42 50.00659 8.52678 1293 ft 150 kts 180°
2026-04-16 06:42 49.99584 8.52690 1947 ft 165 kts 182°
2026-04-16 06:42 49.98362 8.52719 2441 ft 186 kts 182°
2026-04-16 06:42 49.97014 8.53164 2807 ft 215 kts 155°
2026-04-16 06:43 49.95863 8.54806 3314 ft 236 kts 122°
2026-04-16 06:43 49.95048 8.57046 4222 ft 240 kts 120°
2026-04-16 06:43 49.94285 8.59371 5163 ft 244 kts 109°
2026-04-16 06:43 49.93982 8.61982 5964 ft 255 kts 94°
2026-04-16 06:44 49.93868 8.64857 6549 ft 276 kts 93°
2026-04-16 06:44 49.93494 8.67821 7384 ft 285 kts 110°
2026-04-16 06:44 49.92515 8.70507 8304 ft 289 kts 130°
2026-04-16 06:44 49.91019 8.72599 9241 ft 293 kts 146°
2026-04-16 06:45 49.89365 8.74479 10174 ft 298 kts 139°
2026-04-16 06:45 49.87956 8.76880 10895 ft 309 kts 126°
2026-04-16 06:45 49.86819 8.79865 11224 ft 334 kts 119°
2026-04-16 06:45 49.85656 8.83122 11543 ft 356 kts 119°
2026-04-16 06:46 49.84441 8.86523 12193 ft 365 kts 120°
2026-04-16 06:46 49.83197 8.89981 12961 ft 370 kts 120°
2026-04-16 06:46 49.81926 8.93484 13744 ft 375 kts 120°
2026-04-16 06:46 49.80634 8.97031 14454 ft 381 kts 120°
2026-04-16 06:47 49.79324 9.00619 15119 ft 385 kts 120°
2026-04-16 06:47 49.77997 9.04253 15798 ft 390 kts 120°
2026-04-16 06:47 49.76696 9.07962 16459 ft 396 kts 115°
2026-04-16 06:47 49.75749 9.11991 17122 ft 401 kts 104°
2026-04-16 06:48 49.75011 9.16168 17781 ft 406 kts 110°
2026-04-16 06:48 49.73753 9.20095 18428 ft 410 kts 123°
2026-04-16 06:48 49.71998 9.23586 19001 ft 414 kts 134°
2026-04-16 06:48 49.70049 9.26875 19598 ft 418 kts 133°
2026-04-16 06:49 49.68107 9.30242 20206 ft 422 kts 133°
2026-04-16 06:49 49.66168 9.33669 20807 ft 425 kts 132°
2026-04-16 06:49 49.64220 9.37146 21388 ft 429 kts 132°
2026-04-16 06:49 49.62166 9.40502 21942 ft 431 kts 140°
2026-04-16 06:50 49.59793 9.43333 22479 ft 432 kts 150°
2026-04-16 06:50 49.57209 9.45723 23019 ft 435 kts 152°
2026-04-16 06:50 49.54595 9.48096 23202 ft 437 kts 152°
2026-04-16 06:50 49.51933 9.50503 23244 ft 450 kts 152°
2026-04-16 06:51 49.49221 9.52958 23244 ft 454 kts 152°
2026-04-16 06:51 49.46533 9.55398 23241 ft 455 kts 152°
2026-04-16 06:51 49.43779 9.57908 23242 ft 455 kts 152°
2026-04-16 06:51 49.41050 9.60400 23241 ft 455 kts 152°
2026-04-16 06:52 49.38324 9.62884 23242 ft 455 kts 152°
2026-04-16 06:52 49.35605 9.65377 23247 ft 456 kts 149°
2026-04-16 06:52 49.33065 9.68304 23243 ft 459 kts 140°
2026-04-16 06:52 49.30772 9.71743 23246 ft 460 kts 136°
2026-04-16 06:53 49.28524 9.75211 23246 ft 460 kts 136°
2026-04-16 06:53 49.26263 9.78679 23248 ft 460 kts 137°
2026-04-16 06:53 49.23997 9.82133 23246 ft 460 kts 137°
2026-04-16 06:53 49.21726 9.85577 23242 ft 460 kts 137°
2026-04-16 06:54 49.19453 9.89011 23239 ft 459 kts 137°
2026-04-16 06:54 49.17179 9.92441 23245 ft 459 kts 137°
2026-04-16 06:54 49.14908 9.95871 23240 ft 459 kts 137°
2026-04-16 06:54 49.12639 9.99303 23238 ft 459 kts 137°
2026-04-16 06:55 49.10403 10.02687 23235 ft 459 kts 137°
2026-04-16 06:55 49.08135 10.06116 23237 ft 459 kts 137°
2026-04-16 06:55 49.05838 10.09583 23238 ft 459 kts 137°
2026-04-16 06:55 49.03568 10.12913 23237 ft 458 kts 138°
2026-04-16 06:56 49.01238 10.16224 23241 ft 458 kts 139°
2026-04-16 06:56 48.98859 10.19541 23246 ft 458 kts 139°
2026-04-16 06:56 48.96534 10.22763 23248 ft 458 kts 139°
2026-04-16 06:56 48.94181 10.26030 23251 ft 458 kts 139°
2026-04-16 06:57 48.91835 10.29311 23255 ft 458 kts 139°
2026-04-16 06:57 48.89497 10.32602 23259 ft 458 kts 139°
2026-04-16 06:57 48.87160 10.35903 23261 ft 458 kts 139°
2026-04-16 06:57 48.84826 10.39194 23265 ft 458 kts 139°
2026-04-16 06:58 48.82495 10.42497 23267 ft 458 kts 138°
2026-04-16 06:58 48.80228 10.45897 23265 ft 459 kts 136°
2026-04-16 06:58 48.78023 10.49401 23266 ft 459 kts 134°
2026-04-16 06:58 48.75862 10.52961 23265 ft 459 kts 134°
2026-04-16 06:59 48.73707 10.56537 23270 ft 459 kts 134°
2026-04-16 06:59 48.71543 10.60096 23271 ft 459 kts 134°
2026-04-16 06:59 48.69362 10.63628 23278 ft 459 kts 135°
2026-04-16 06:59 48.67166 10.67133 23277 ft 459 kts 135°
2026-04-16 07:00 48.64960 10.70627 23272 ft 459 kts 135°
2026-04-16 07:00 48.62756 10.74110 23270 ft 459 kts 135°
2026-04-16 07:00 48.60551 10.77595 23269 ft 459 kts 135°
2026-04-16 07:01 48.56150 10.84560 23216 ft 457 kts 135°
2026-04-16 07:01 48.53972 10.88035 23117 ft 454 kts 135°
2026-04-16 07:01 48.51808 10.91499 22855 ft 452 kts 135°
2026-04-16 07:01 48.49657 10.94944 22590 ft 450 kts 135°
2026-04-16 07:02 48.48236 10.97215 22406 ft 449 kts 135°
2026-04-16 07:02 48.46086 11.00612 22142 ft 447 kts 135°
2026-04-16 07:02 48.43931 11.03980 21883 ft 445 kts 135°
2026-04-16 07:02 48.41784 11.07315 21624 ft 443 kts 135°
2026-04-16 07:03 48.39642 11.10627 21366 ft 441 kts 135°
2026-04-16 07:03 48.37502 11.13932 21117 ft 439 kts 135°
2026-04-16 07:03 48.35379 11.17212 20861 ft 437 kts 135°
2026-04-16 07:03 48.33264 11.20484 20611 ft 435 kts 135°
2026-04-16 07:04 48.31161 11.23745 20363 ft 433 kts 135°
2026-04-16 07:04 48.29065 11.26986 20115 ft 432 kts 135°
2026-04-16 07:04 48.26975 11.30209 19875 ft 430 kts 135°
2026-04-16 07:04 48.24860 11.33367 19636 ft 428 kts 137°
2026-04-16 07:05 48.22686 11.36404 19397 ft 426 kts 139°
2026-04-16 07:05 48.20480 11.39348 19160 ft 424 kts 140°
2026-04-16 07:05 48.18259 11.42253 18927 ft 423 kts 140°
2026-04-16 07:05 48.16047 11.45142 18697 ft 421 kts 140°
2026-04-16 07:06 48.13852 11.48030 18443 ft 420 kts 140°
2026-04-16 07:06 48.11674 11.50922 18173 ft 418 kts 139°
2026-04-16 07:06 48.09514 11.53814 17896 ft 416 kts 139°
2026-04-16 07:06 48.07370 11.56704 17636 ft 414 kts 139°
2026-04-16 07:07 48.05240 11.59577 17376 ft 412 kts 139°
2026-04-16 07:07 48.03114 11.62432 17110 ft 410 kts 139°
2026-04-16 07:07 48.00997 11.65269 16848 ft 408 kts 139°
2026-04-16 07:07 47.98885 11.68093 16594 ft 406 kts 139°
2026-04-16 07:08 47.96786 11.70896 16471 ft 405 kts 139°
2026-04-16 07:08 47.94682 11.73684 16391 ft 404 kts 140°
2026-04-16 07:08 47.92403 11.76109 16291 ft 402 kts 150°
2026-04-16 07:08 47.89892 11.77920 16247 ft 400 kts 160°
2026-04-16 07:09 47.87226 11.79090 16262 ft 400 kts 171°
2026-04-16 07:09 47.84471 11.79315 16254 ft 397 kts 187°
2026-04-16 07:09 47.81804 11.78396 16178 ft 393 kts 204°
2026-04-16 07:09 47.79465 11.76368 16088 ft 388 kts 221°
2026-04-16 07:10 47.77659 11.73437 16023 ft 384 kts 238°
2026-04-16 07:10 47.76206 11.70114 15951 ft 384 kts 239°
2026-04-16 07:10 47.74754 11.66785 15877 ft 384 kts 239°
2026-04-16 07:10 47.73298 11.63467 15808 ft 383 kts 238°
2026-04-16 07:11 47.71836 11.60156 15726 ft 383 kts 238°
2026-04-16 07:11 47.70371 11.56848 15652 ft 383 kts 238°
2026-04-16 07:11 47.68907 11.53543 15574 ft 383 kts 238°
2026-04-16 07:11 47.67446 11.50241 15507 ft 383 kts 238°
2026-04-16 07:12 47.65983 11.46936 15431 ft 383 kts 238°
2026-04-16 07:12 47.64523 11.43637 15350 ft 382 kts 238°
2026-04-16 07:12 47.63064 11.40345 15281 ft 382 kts 238°
2026-04-16 07:12 47.61604 11.37057 15203 ft 382 kts 238°
2026-04-16 07:13 47.60145 11.33771 15128 ft 382 kts 238°
2026-04-16 07:13 47.58686 11.30491 15053 ft 381 kts 238°
2026-04-16 07:13 47.57224 11.27210 14984 ft 382 kts 238°
2026-04-16 07:13 47.55762 11.23933 14909 ft 381 kts 238°
2026-04-16 07:14 47.54299 11.20664 14843 ft 381 kts 238°
2026-04-16 07:14 47.52838 11.17401 14760 ft 380 kts 238°
2026-04-16 07:15 47.52520 11.16691 14743 ft 380 kts 238°
2026-04-16 07:15 47.51054 11.13438 14671 ft 380 kts 238°
2026-04-16 07:15 47.49592 11.10180 14600 ft 380 kts 238°
2026-04-16 07:15 47.48132 11.06925 14530 ft 380 kts 238°
2026-04-16 07:16 47.46673 11.03673 14457 ft 380 kts 238°
2026-04-16 07:16 47.45216 11.00425 14388 ft 379 kts 238°
2026-04-16 07:16 47.43756 10.97177 14315 ft 379 kts 238°
2026-04-16 07:16 47.42314 10.93981 14233 ft 366 kts 238°
2026-04-16 07:17 47.40931 10.90924 14159 ft 350 kts 238°
2026-04-16 07:17 47.39607 10.88003 14090 ft 335 kts 238°
2026-04-16 07:17 47.38337 10.85206 14006 ft 321 kts 238°
2026-04-16 07:17 47.37118 10.82524 13926 ft 308 kts 238°
2026-04-16 07:18 47.35947 10.79941 13842 ft 297 kts 238°
2026-04-16 07:18 47.34820 10.77453 13763 ft 286 kts 238°
2026-04-16 07:18 47.33731 10.75054 13682 ft 277 kts 238°
2026-04-16 07:18 47.32680 10.72739 13601 ft 267 kts 238°
2026-04-16 07:19 47.31664 10.70504 13518 ft 258 kts 238°